Location: Unspecified
(43.1763°N, 79.4719°W)
Time: 18:25:53
(UTC-04:00)

CZ-3 Stage 3 - Visible Passes

Search period start: 25 June 2017 00:00
Search period end: 05 July 2017 00:00
Orbit: 417 x 34780 km, 30.9° (Epoch: 24 June)

Date Brightness Start Highest point End Pass type
(mag) Time Alt. Az. Time Alt. Az. Time Alt. Az.
25 Jun 10.1 23:43:28 10° WNW 00:34:56 16° W 02:00:11 10° W visible
26 Jun 9.6 19:30:57 10° W 20:47:15 57° SW 02:47:44 10° WSW visible
27 Jun 7.5 15:49:48 10° WSW 19:16:24 48° SE 00:33:39 16° S visible
28 Jun 10.1 23:34:54 10° WNW 00:24:22 15° W 01:45:03 10° W visible
29 Jun 9.7 19:21:39 10° W 20:36:27 56° SW 02:33:25 10° WSW visible
30 Jun 7.5 15:40:32 10° WSW 16:01:50 68° SSE 00:27:26 14° S visible
01 Jul 10.2 23:26:29 10° WNW 00:13:51 15° W 01:29:43 10° W visible
02 Jul 9.7 19:12:21 10° W 20:25:42 55° SW 02:19:04 10° WSW visible
03 Jul 7.4 15:31:15 10° WSW 15:52:14 68° SSE 00:21:18 12° S visible
